Location: Collongues
(43.2866°N, 0.1611°E)
Time: 02:42:10
(UTC+00:00)

Daily predictions for brighter satellites

Satellite Brightness Start Highest point End
(mag) Time Altitude Azimuth Time Altitude Azimuth Time Altitude Azimuth
ATLAS 3B R/B 4.3 03:30:35 25° NNE 03:31:21 25° NNE 03:37:04 10° E
ALOS 4.5 03:51:21 10° NE 03:53:16 21° NE 03:53:16 21° NE
NOSS 3-4 (A) 3.9 04:00:50 55° ENE 04:00:50 55° ENE 04:05:58 10° NE
NOSS 3-4 (C) 3.9 04:00:54 55° E 04:00:54 55° E 04:06:06 10° NE
NOSS 3-2 (C) 3.9 04:00:07 86° N 04:00:17 87° NE 04:08:54 10° SE
Milstar 3 Cent rocket 4.2 04:00:15 25° S 04:01:31 27° SSE 04:10:00 10° ESE
CENTAUR R/B 3.1 04:01:36 78° NNW 04:02:18 89° NE 04:11:13 10° SE
ATLAS 2AS CENTAUR R/B 3.2 04:15:30 35° SSW 04:19:17 72° ESE 04:27:09 10° NE
NOSS 3-2 (A) 4.5 04:28:37 45° SW 04:28:37 45° SW 04:35:36 10° S
Atlas Centaur 2 4.0 04:26:40 22° S 04:27:50 23° S 04:32:19 10° SE
RESURS DK-1 4.4 04:26:56 10° SSE 04:30:20 27° ESE 04:33:51 10° NE
Lacrosse 5 2.1 04:32:03 67° ENE 04:32:03 67° ENE 04:36:31 10° NE
ATLAS CENTAUR R/B 3.5 04:32:06 19° NE 04:32:13 19° NE 04:35:02 10° E
ADEOS 3.8 04:30:16 10° NNE 04:35:29 68° ESE 04:40:40 10° S
Cosmos 1328 Rocket 4.3 04:35:39 47° NE 04:36:20 52° E 04:40:39 10° SSE
Cosmos 2263 Rocket 3.0 04:43:11 38° N 04:43:11 38° N 04:46:57 10° NNE
Gbstr 26 Del rocket 3.9 04:43:34 37° ENE 04:43:34 37° ENE 04:46:27 10° E
SJ 16-02 2.5 04:45:52 33° NNE 04:45:52 33° NNE 04:48:21 10° NNE
Meteor 1-4 Rocket 4.4 04:46:48 24° SSE 04:46:48 24° SSE 04:48:20 10° SSE
USA 238 DEB 4.4 04:45:53 38° SW 04:45:53 38° SW 04:51:55 10° S
USA 238 4.4 04:45:56 39° SW 04:45:56 39° SW 04:52:02 10° S
Cosmos 1898 Rocket 4.3 04:46:18 10° S 04:51:26 52° ESE 04:56:36 10° NNE
Meteor 1-26 Rocket 4.2 04:48:59 14° N 04:54:01 84° ENE 04:59:37 10° S
FENGYUN 3A 3.5 04:55:00 10° N 05:00:22 65° WNW 05:05:42 10° SSW
Cosmos 1408 Rocket 3.7 04:56:40 10° S 05:01:07 74° E 05:05:34 10° NNE
COSMO-SKYMED 1 2.8 05:00:38 10° SSE 05:04:56 70° ENE 05:07:59 19° N
Cosmos 2181 Rocket 3.8 04:59:01 10° N 05:05:14 79° W 05:11:21 10° S
Cosmos 1709 Rocket 4.1 04:59:34 10° SSW 05:05:46 53° WNW 05:12:01 10° N
Cosmos 1937 Rocket 4.3 05:03:33 10° S 05:08:31 52° ESE 05:13:32 10° NNE
Cosmos 1603 4.5 05:12:26 31° WSW 05:12:26 31° WSW 05:16:32 10° SSW
Meteor 2-3 Rocket 3.7 05:07:25 10° SSW 05:13:03 61° WNW 05:18:48 10° N
CZ-4C R/B 1.9 05:11:05 25° SW 05:14:04 83° NW 05:19:56 10° NE
Lacrosse 4 Rocket 1.8 05:14:32 45° WSW 05:14:32 45° WSW 05:18:31 10° S
Cosmos 1943 3.8 05:17:53 33° WSW 05:17:53 33° WSW 05:22:54 10° SSW
FALCON 9 DEB 3.6 05:18:33 44° NNE 05:18:33 44° NNE 05:21:03 10° NE
Cosmos 1689 Rocket 2.3 05:15:09 10° SSE 05:17:59 63° ENE 05:18:12 60° NE
CZ-4B R/B 3.1 05:14:27 10° NNE 05:18:58 81° ESE 05:23:20 10° S
SAR-Lupe-4 3.4 05:18:14 10° S 05:21:47 72° WSW 05:22:38 48° NW
Aureole 2 Rocket 4.2 05:20:27 10° SSE 05:22:35 24° ESE 05:24:43 10° NE
ATLAS 3B R/B 2.8 05:17:51 20° NW 05:23:01 85° NE 05:30:16 10° SE
Cosmos 1862 4.0 05:21:57 10° S 05:25:54 57° E 05:29:54 10° NNE
Genesis I 3.0 05:24:54 27° SW 05:26:54 79° NW 05:30:45 10° NNE
SKYMED 3 4.5 05:24:40 10° S 05:28:59 64° W 05:32:17 17° NNW
deb Chang Zheng 4 3.8 05:28:34 10° N 05:32:42 44° WNW 05:36:50 10° SW
ALOS 3.3 05:28:47 10° N 05:31:45 27° NW 05:31:45 27° NW
Cosmos 990 Rocket 4.0 05:28:56 10° SSW 05:34:06 59° WNW 05:39:19 10° NNE
Cosmos 2074 Rocket 3.9 05:29:29 10° SSW 05:35:42 78° W 05:41:56 10° N
Cosmos 923 Rocket 4.4 05:34:01 25° NW 05:36:31 41° WSW 05:41:27 10° S
SAR-Lupe-1 4.3 05:35:23 10° S 05:38:49 45° W 05:40:08 30° NW
ASTRO F (AKARI) 4.4 05:37:20 10° NNE 05:40:26 73° ESE 05:43:35 10° S
BREEZE M DEB (TANK) 3.5 05:30:49 10° SW 05:40:47 62° SSE 05:43:55 10° ENE
Cosmos 405 Rocket 2.7 05:38:01 10° S 05:41:42 78° E 05:45:27 10° NNE
Meteor 1-31 Rocket 4.4 05:39:09 10° N 05:40:29 18° NNW 05:40:29 18° NNW
EO 1 Delta rocket 3.8 05:41:01 10° S 05:46:10 85° W 05:50:48 10° N
Cosmos 1812 2.7 05:44:08 10° N 05:47:59 87° E 05:51:50 10° S
Cosmos 2228 Rocket 3.0 05:46:06 10° N 05:50:32 90° E 05:54:55 10° S
Cosmos 1515 Rocket 3.9 05:46:48 10° NNW 05:51:01 42° W 05:55:13 10° SSW
NOSS 3-4 (A) 4.3 05:48:19 21° WNW 05:51:11 30° NW 05:56:43 10° NNE
NOSS 3-4 (C) 4.3 05:48:24 20° W 05:51:18 30° NW 05:56:51 10° NNE
PSLV R/B 4.2 05:47:39 10° S 05:51:40 48° W 05:55:39 10° NNW
SL-4 R/B 3.4 05:50:37 18° NNW 05:52:16 23° N 05:55:17 10° ENE
CENTAUR R/B 4.2 05:48:50 19° WNW 05:52:23 24° WSW 05:59:01 10° SSW
SKYMED 2 4.2 05:49:09 10° SSW 05:53:06 35° W 05:56:36 13° NW
Cosmos 2184 Rocket 4.0 05:47:02 10° SSW 05:53:14 60° W 05:59:33 10° N
GPS 2-04 Rocket1 4.3 05:50:40 13° WSW 05:53:17 24° S 05:56:24 10° SE
Cosmos 1151 Rocket 4.4 05:53:57 19° W 05:53:57 19° W 05:56:36 10° SW
Cosmos 1782 3.7 05:52:14 21° NW 05:53:52 28° W 05:57:20 10° SSW
ERS-2 4.1 05:52:45 10° SW 05:53:52 14° WSW 05:53:52 14° WSW
FALCON 9 DEB 4.1 05:56:58 23° NW 05:57:54 27° NNW 06:00:42 10° NE
Cosmos 1844 Rocket 2.8 05:54:12 10° SW 05:59:44 56° WNW 06:05:20 10° NNE
USA 234 3.7 05:53:19 10° NE 05:59:50 66° SE 06:06:19 10° SW
Spot 2 4.5 05:55:44 10° NNE 06:00:55 89° WNW 06:05:58 10° SSW
Cosmos 1680 Rocket 4.3 06:00:25 13° NW 06:04:21 31° W 06:08:58 10° SSW
EXPRESS MD2 4.4 06:03:36 16° NW 06:06:39 54° NNE 06:14:10 10° E
Cosmos 1707 Rocket 4.5 06:03:18 10° N 06:07:33 50° ENE 06:11:44 10° SSE
COSMOS 2455 2.9 06:01:49 10° SSW 06:07:50 85° ESE 06:13:55 10° NNE
RESURS DK-1 3.2 06:04:38 10° WSW 06:08:17 29° NW 06:11:57 10° N
BREEZE-M (TANK) 4.1 06:00:36 10° SW 06:09:26 46° SSE 06:12:21 10° ENE
ATLAS 2AS CENTAUR R/B 3.6 06:03:43 10° WSW 06:10:55 36° NW 06:18:00 10° NNE
ATLAS CENTAUR R/B 1.5 06:08:18 14° NW 06:11:17 46° WSW 06:15:06 10° SSE
BREEZE-M DEB 3.6 06:02:56 13° WNW 06:11:28 74° SW 06:14:33 10° SE
NOAA 6 4.0 06:07:50 10° NNE 06:12:59 86° WNW 06:18:06 10° SSW
Cosmos 1500 Rocket 4.0 06:09:02 10° SW 06:13:00 36° WNW 06:17:02 10° N
Cosmos 1844 3.8 06:08:15 10° SW 06:13:39 53° WNW 06:19:08 10° NNE
Lacrosse 5 2.9 06:11:18 14° W 06:14:53 28° NNW 06:19:15 10° NE
H-2A R/B 3.2 06:11:51 10° N 06:15:30 39° WNW 06:19:07 10° SW
Atlas Centaur 2 4.0 06:11:41 10° WSW 06:16:06 21° S 06:19:52 10° SE
Cosmos 372 Rocket 3.9 06:12:05 10° SSW 06:17:10 77° WNW 06:22:17 10° NNE
Cosmos 1437 Rocket 2.6 06:14:21 10° NNW 06:18:07 69° W 06:21:51 10° S
CZ-4B DEB 4.2 06:12:41 10° NNE 06:18:09 77° WNW 06:23:37 10° SSW
Okean O Rocket 2.1 06:17:15 10° NNE 06:21:41 66° ESE 06:26:06 10° S
SJ 16-02 3.3 06:22:56 10° NW 06:23:12 10° NW 06:23:55 10° NW
USA 81 4.3 06:18:09 10° S 06:23:24 77° E 06:28:40 10° N
PAYLOAD B 4.2 06:19:04 10° NNE 06:24:36 83° WNW 06:30:06 10° SSW
SMAP 3.2 06:20:43 10° NNE 06:25:25 83° ESE 06:30:04 10° SSW
Cosmos 2263 Rocket 4.0 06:25:32 10° NW 06:26:44 11° NW 06:27:55 10° NNW
Gbstr 26 Del rocket 3.7 06:26:06 10° WNW 06:29:28 33° SW 06:33:11 10° SSE
ATLAS 5 CENTAUR R/B 2.1 06:26:23 10° SSW 06:30:19 59° ESE 06:34:40 10° NE
Sich 1 3.1 06:29:17 10° SSW 06:33:39 58° W 06:38:03 10° N
CZ-2C R/B 2.8 06:29:26 10° SSE 06:34:57 86° ENE 06:40:22 10° NNW
Nadezhda 3 Rocket 4.3 06:29:54 10° NNW 06:35:50 45° W 06:41:41 10° SSW
AQUARIUS 4.1 06:34:37 10° N 06:39:08 80° WNW 06:43:37 10° SSW
H-2A R/B 2.7 06:35:55 10° N 06:39:32 40° WNW 06:43:07 10° SW
Envisat 3.3 06:34:53 10° N 06:39:42 45° WNW 06:44:31 10° SW
